Miscellaneous Local Product
Issued by NWS Hastings, NE

Home | Current Version | Previous Version | Graphics & Text | Print | Product List | Glossary On
Versions: 1 2 3 4 5 6 7 8 9 10 11 12 13 14 15 16 17 18 19 20 21 22 23 24 25 26 27 28 29 30 31 32 33 34 35 36 37 38 39 40 41 42 43 44 45 46 47 48 49 50
000
AXUS43 KGID 201402
MISGRI

GID CWA HOURLY WEATHER ROUNDUP
NATIONAL WEATHER SERVICE HASTINGS NE
800 AM CST MON FEB 20 2017

NOTE: "FAIR" INDICATES FEW OR NO CLOUDS BELOW 12,000 FEET WITH NO
SIGNIFICANT WEATHER AND/OR OBSTRUCTIONS TO VISIBILITY.

...SOUTH CENTRAL NEBRASKA...

CITY           SKY/WX    TMP DP  RH WIND       PRES   REMARKS
GRAND ISLAND   CLOUDY    54  54 100 S9        29.71R FOG
HASTINGS       CLOUDY    54  53  97 S6        29.72S FOG
KEARNEY        PTCLDY    52  46  82 S7        29.71F
ORD            CLOUDY    52  49  89 SW10      29.67S FOG
YORK           CLOUDY    55  55 100 SE9       29.71F FOG
AURORA         CLOUDY    55  55  99 S9        29.71S FOG
LEXINGTON      CLOUDY    47  40  75 NW9       29.73R
HOLDREGE       CLOUDY    48  47  93 SW5       29.73R FOG
HEBRON         CLOUDY    56  55  96 S10       29.72F FOG

...NEBRASKA PANHANDLE...

CITY           SKY/WX    TMP DP  RH WIND       PRES   REMARKS
CHADRON        CLOUDY    41  33  73 W13       29.84R
ALLIANCE       CLOUDY    40  25  55 NW16      29.82R WCI  31
SCOTTSBLUFF    CLEAR     31  20  63 W7        29.87R WCI  24
SIDNEY         CLEAR     37  20  50 NW16      29.87R WCI  28

...WESTERN AND NORTH CENTRAL NEBRASKA...

CITY           SKY/WX    TMP DP  RH WIND       PRES   REMARKS
VALENTINE      CLOUDY    46  38  73 NW17G24   29.69R
AINSWORTH      PTCLDY    46  40  80 W10       29.69R
ONEILL         CLOUDY    53  52  97 SW10      29.66S FOG
BROKEN BOW     CLOUDY    46  44  93 W3        29.69S
IMPERIAL       CLEAR     43  21  41 W16       29.80R
NORTH PLATTE   PTCLDY    40  30  67 NW8       29.74R WCI  34
MCCOOK         CLOUDY    47  34  60 W7        29.78R

...EASTERN NEBRASKA...

CITY           SKY/WX    TMP DP  RH WIND       PRES   REMARKS
NORFOLK        CLOUDY    56  54  93 S15       29.69R FOG
SO SIOUX CITY  CLOUDY    56  54  93 SE9       29.72S FOG
TEKAMAH        CLOUDY    56  54  93 SE14      29.74R FOG
COLUMBUS       MOCLDY    55  54  94 S10       29.73R
ALBION         CLOUDY    54  51  92 S5        29.70R FOG
OMAHA EPPLEY   CLOUDY    58  54  86 S15       29.76R FOG
OFFUTT AFB     CLOUDY    99 N/A N/A S10       29.77R
MILLARD        CLOUDY    59  58  94 SE6       29.77R FOG
LINCOLN        CLOUDY    59  57  93 S12       29.75R
NEBRASKA CITY  RAIN      56  56  99 S5        29.79R VSB 1
BEATRICE       DRIZZLE   58  57  96 S9        29.77R
FALLS CITY     LGT RAIN  59  56  89 S9        29.79R

...NORTHERN KANSAS...

CITY           SKY/WX    TMP DP  RH WIND       PRES   REMARKS
GOODLAND       CLEAR     44  19  36 NW20      29.86R
HILL CITY      CLOUDY    49  39  68 W6        29.78R
NORTON         SUNNY     48  36  61 W10       29.76R
SMITH CENTER   CLEAR     52  52 100 S9        29.76R FOG
HAYS           CLOUDY    48  45  89 SW6       29.74S
RUSSELL        CLOUDY    53  52  96 S8        29.74S
CONCORDIA      CLOUDY    57  57 100 S13       29.74F
SALINA         MOCLDY    59  56  89 S12       29.76S
TOPEKA         LGT RAIN  60  56  86 SE8       29.79R



USA.gov is the U.S. government's official web portal to all federal, state and local government web resources and services.